Biloxi, MS

4:02 AM CDT on September 24, 2017 (GMT -0500)
Keesler Air Force Base

Weather History for KBIX - April, 2012

Change the Weather History Date:

Tuesday, April 24, 2012

  Actual Average Record
Temperature  
Mean Temperature 58 °F -  
Max Temperature 70 °F 78 °F 87 °F (1999)
Min Temperature 47 °F 61 °F 47 °F (1959)
Degree Days  
Heating Degree Days 6    
Growing Degree Days 8 (Base 50)    
Moisture  
Dew Point 43 °F    
Average Humidity 53    
Maximum Humidity 73    
Minimum Humidity 32    
Precipitation  
Precipitation 0.00 in - - ()
Sea Level Pressure  
Sea Level Pressure 30.06 in    
Wind  
Wind Speed 7 mph (WSW)    
Max Wind Speed 17 mph    
Max Gust Speed 25 mph    
Visibility 10 miles    
Events      
Averages and records for this station are not official NWS values.
T = Trace of Precipitation, MM = Missing Value Source: NWS Daily Summary

Daily Weather History Graph

Daily Weather History Graph

Search for Another Location

Airport or City:

Trip Planner

Search our weather history database for the weather conditions in past years. The results will help you decide how hot, cold, wet, or windy it might be!

Date:

Astronomy

Apr. 24, 2012 Rise Set
Actual Time 6:18 AM CDT 7:29 PM CDT
Civil Twilight 5:53 AM CDT 7:54 PM CDT
Nautical Twilight 5:23 AM CDT 8:24 PM CDT
Astronomical Twilight 4:52 AM CDT 8:55 PM CDT
Moon 8:24 AM CDT 10:39 PM CDT
Length of Visible Light 14h 01m
Length of Day
13h 11m
Waxing Crescent, 10% of the Moon is Illuminated
Apr 24
Waxing Crescent
Apr 29
First Quarter
May 5
Full
May 12
Last Quarter
May 20
New

Hourly Weather History & Observations

Time (CDT) Temp. Dew Point Humidity Pressure Visibility Wind Dir Wind Speed Gust Speed Precip Events Conditions
12:55 AM 54.3 °F 38.7 °F 55% 30.07 in 10.0 mi NNW 3.5 mph - N/A   Clear
1:55 AM 52.5 °F 39.2 °F 61% 30.06 in 10.0 mi Calm Calm - N/A   Clear
2:55 AM 50.2 °F 39.6 °F 67% 30.06 in 10.0 mi Calm Calm - N/A   Clear
3:55 AM 47.5 °F 39.4 °F 73% 30.06 in 10.0 mi NW 3.5 mph - N/A   Clear
4:55 AM 48.7 °F 39.4 °F 70% 30.07 in 10.0 mi NW 3.5 mph - N/A   Clear
5:55 AM 49.5 °F 39.9 °F 70% 30.09 in 10.0 mi NW 3.5 mph - N/A   Clear
6:55 AM 49.6 °F 40.6 °F 71% 30.10 in 10.0 mi NNW 3.5 mph - N/A   Clear
7:55 AM 54.3 °F 43.0 °F 66% 30.11 in 10.0 mi Calm Calm - N/A   Clear
8:55 AM 62.1 °F 43.2 °F 50% 30.12 in 10.0 mi Calm Calm - N/A   Clear
9:55 AM 64.9 °F 34.3 °F 32% 30.13 in 10.0 mi SSW 6.9 mph - N/A   Clear
10:55 AM 66.6 °F 40.1 °F 38% 30.13 in 10.0 mi SW 9.2 mph - N/A   Clear
11:55 AM 67.8 °F 38.3 °F 34% 30.12 in 10.0 mi SSW 10.4 mph - N/A   Clear
12:55 PM 68.5 °F 41.0 °F 37% 30.09 in 10.0 mi SW 15.0 mph - N/A   Clear
1:55 PM 69.8 °F 38.8 °F 32% 30.07 in 10.0 mi SSW 15.0 mph - N/A   Clear
2:55 PM 70.0 °F 41.2 °F 35% 30.05 in 10.0 mi SW 17.3 mph - N/A   Clear
3:55 PM 70.0 °F 41.4 °F 35% 30.04 in 10.0 mi SW 15.0 mph - N/A   Clear
4:55 PM 70.2 °F 44.2 °F 39% 30.02 in 10.0 mi SW 17.3 mph 23.0 mph N/A   Clear
5:55 PM 69.1 °F 46.0 °F 44% 30.01 in 10.0 mi SW 16.1 mph - N/A   Clear
6:55 PM 66.9 °F 48.6 °F 52% 30.01 in 10.0 mi SW 11.5 mph - N/A   Clear
7:55 PM 65.5 °F 50.0 °F 57% 30.01 in 10.0 mi SW 16.1 mph - N/A   Clear
8:55 PM 65.5 °F 50.7 °F 59% 30.02 in 10.0 mi SW 17.3 mph 25.3 mph N/A   Clear
9:55 PM 65.1 °F 51.3 °F 61% 30.03 in 10.0 mi SW 17.3 mph - N/A   Clear
10:55 PM 65.3 °F 50.5 °F 59% 30.04 in 10.0 mi SW 16.1 mph - N/A   Clear
11:55 PM 64.9 °F 52.3 °F 64% 30.04 in 10.0 mi WSW 13.8 mph - N/A   Clear